This demonstration page uses our WeatherBlox Daily Observations layout. Learn more.

41.55636, -103.73856

Hourly Observations for April 18, 2019

Temp ( °F °C ) Dew Point ( °F °C ) Humidity (%) Winds ( mph kmh ) Pressure ( in mb ) Visibility ( mi km ) Precip ( " mm )
12:53 am 00:53 Clear 39 3.9 37 2.8 93 93 WNW 9 15 30 1016 10 16.09344 0 0
1:53 am 01:53 Mostly Cloudy 41 5 36 2.2 82 82 WNW 10 17 30 1016 10 16.09344 0 0
2:53 am 02:53 Clear 41 5 36 2.2 82 82 WNW 13 20 29.97 1015 10 16.09344 0 0
3:53 am 03:53 Mostly Cloudy 39 3.9 35 1.7 86 86 WNW 10 17 30 1016 10 16.09344 0 0
4:53 am 04:53 Mostly Cloudy 38 3.3 34 1.1 86 86 WNW 8 13 30 1016 10 16.09344 0 0
5:53 am 05:53 Mostly Cloudy 39 3.9 35 1.7 86 86 WNW 9 15 30.06 1018 10 16.09344 0 0
6:53 am 06:53 Mostly Cloudy 43 6.1 34 1.1 71 71 NW 17 28 30.06 1018 10 16.09344 0 0
7:53 am 07:53 Cloudy 45 7.2 34 1.1 66 66 WNW 17 28 30.09 1019 10 16.09344 0 0
8:53 am 08:53 Mostly Sunny 50 10 32 0 50 50 NNW 26 43 30.09 1019 10 16.09344 0 0
9:53 am 09:53 Mostly Cloudy 53 11.7 31 -0.6 43 43 NW 29 46 30.09 1019 10 16.09344 0 0
10:53 am 10:53 Mostly Sunny 57 13.9 27 -2.8 32 32 NNW 33 54 30.09 1019 10 16.09344 0 0
11:53 am 11:53 Mostly Cloudy 56 13.3 26 -3.3 32 32 NNW 31 50 30.12 1020 10 16.09344 0 0
12:53 pm 12:53 Cloudy 56 13.3 23 -5 28 28 NNW 35 56 30.09 1019 10 16.09344 0 0
1:53 pm 13:53 Mostly Sunny 61 16.1 23 -5 23 23 NW 28 44 30.06 1018 10 16.09344 0 0
2:53 pm 14:53 Mostly Cloudy 60 15.6 19 -7.2 20 20 NNW 31 50 30.06 1018 10 16.09344 0 0
3:53 pm 15:53 Partly Cloudy 59 15 20 -6.7 22 22 NNW 28 44 30.09 1019 10 16.09344 0 0
4:53 pm 16:53 Partly Cloudy 61 16.1 21 -6.1 21 21 NNW 28 44 30.09 1019 10 16.09344 0 0
5:53 pm 17:53 Sunny 59 15 21 -6.1 23 23 N 26 43 30.09 1019 10 16.09344 0 0
6:53 pm 18:53 Sunny 57 13.9 22 -5.6 26 26 N 20 31 30.09 1019 10 16.09344 0 0
7:53 pm 19:53 Clear 50 10 22 -5.6 33 33 N 8 13 30.12 1020 10 16.09344 0 0
8:53 pm 20:53 Clear 45 7.2 23 -5 42 42 NE 3 6 30.15 1021 10 16.09344 0 0
9:53 pm 21:53 Clear 44 6.7 23 -5 43 43 VRB 3 6 30.15 1021 10 16.09344 0 0
10:53 pm 22:53 Clear 38 3.3 24 -4.4 57 57 Calm 30.15 1021 10 16.09344 0 0
11:53 pm 23:53 Clear 37 2.8 24 -4.4 59 59 N 3 6 30.15 1021 10 16.09344 0 0

Powered by AerisWeather